User: anonymous   Login
Location: NJAA Observatory
(40.6819°N, 74.8979°W)
Time: 01:33:00
(UTC-05:00)
Language:

CENTAUR R/B - Orbit

View from above orbital plane
View from above orbital plane
View from above satellite
View from above satellite

Ground track
Ground track

The orbit data is extracted from the following two-line orbital elements,

1 26906U 01040B   17323.74382942 0.00000060  00000-0  69503-4 0    09
2 26906  63.4580 294.5862 0364000 341.1196  18.8804 13.44018589    07
Epoch (UTC): 19 November 2017 17:51:06
Eccentricity: 0.0364000
inclination: 63.4580°
perigee height: 822 km
apogee height: 1366 km
right ascension of ascending node: 294.5862°
argument of perigee: 341.1196°
revolutions per day: 13.44018589
mean anomaly at epoch: 18.8804°
orbit number at epoch: 0

The dashed part of the orbit path shows where the satellite is in the earth's shadow,  

DLR